Location: Ripley
(48.3812°N, 115.4473°W)
Time: 11:39:09
(UTC+00:00)

AIST 2D - Pass Details

Date: 30 June 2022
Orbit: 433 x 443 km, 97.0° (Epoch: 11 August)

Event Time Altitude Azimuth Distance (km) Brightness Sun altitude
Rises 05:40:31 0° 8° (N) 2,426 ? -13.2°
Reaches altitude 10° 05:42:34 10° 4° (N) 1,553 ? -13.3°
Maximum altitude 05:45:49 54° 286° (WNW) 542 ? -13.6°
Enters shadow 05:48:55 11° 209° (SSW) 1,491 ? -13.8°
